Location: Grossmotten
(48.5500°N, 15.3833°E)
Time: 16:58:36
(UTC+00:00)

Cosmos 1076 Rocket - Pass Details

Date: 15 November 2019
Orbit: 588 x 614 km, 82.5° (Epoch: 11 December)

Event Time Altitude Azimuth Distance (km) Brightness Sun altitude
Exits shadow 04:03:15 17° 206° (SSW) 1,568 5.4 -20.2°
Maximum altitude 04:06:31 58° 282° (WNW) 716 3.5 -19.6°
Drops below altitude 10° 04:10:49 10° 2° (N) 1,969 6.1 -18.9°
Sets 04:13:04 0° 7° (N) 2,873 7.0 -18.6°
